Paso Robles, CA

10:03 AM PST on February 24, 2017 (GMT -0800)
Paso Robles Municipal

Weather History for KPRB - March, 2015

Change the Weather History Date:

Wednesday, March 18, 2015

  Actual Average Record
Temperature  
Mean Temperature 62 °F 53 °F  
Max Temperature 79 °F 67 °F 86 °F (2004)
Min Temperature 45 °F 40 °F 28 °F (2002)
Degree Days  
Heating Degree Days 3 12  
Month to date heating degree days 121 222  
Since 1 July heating degree days 1481 2315  
Cooling Degree Days 0 0  
Month to date cooling degree days 10 0  
Year to date cooling degree days 10 0  
Growing Degree Days 11 (Base 50)    
Moisture  
Dew Point 43 °F    
Average Humidity 58    
Maximum Humidity 89    
Minimum Humidity 27    
Precipitation  
Precipitation 0.00 in 0.08 in 2.02 in (1991)
Month to date precipitation 0.02 1.70  
Year to date precipitation 2.33 7.04  
Sea Level Pressure  
Sea Level Pressure 30.01 in    
Wind  
Wind Speed 5 mph (NW)    
Max Wind Speed 16 mph    
Max Gust Speed 19 mph    
Visibility 10 miles    
Events      
T = Trace of Precipitation, MM = Missing Value Source: NWS Daily Summary

Daily Weather History Graph

Daily Weather History Graph

Search for Another Location

Airport or City:

Trip Planner

Search our weather history database for the weather conditions in past years. The results will help you decide how hot, cold, wet, or windy it might be!

Date:

Astronomy

Mar. 18, 2015 Rise Set
Actual Time 7:09 AM PDT 7:12 PM PDT
Civil Twilight 6:43 AM PDT 7:37 PM PDT
Nautical Twilight 6:14 AM PDT 8:07 PM PDT
Astronomical Twilight 5:44 AM PDT 8:37 PM PDT
Moon 5:51 AM PDT (3/18) 5:37 PM PDT (3/18)
Length of Visible Light 12h 54m
Length of Day
12h 03m
Waning Crescent, 4% of the Moon is Illuminated
Mar 18
Waning Crescent
Mar 20
New
Mar 27
First Quarter
Apr 4
Full
Apr 11
Last Quarter

Hourly Weather History & Observations

Time (PDT) Temp. Dew Point Humidity Pressure Visibility Wind Dir Wind Speed Gust Speed Precip Events Conditions
12:53 AM 54.0 °F 43.0 °F 66% 30.03 in 10.0 mi NW 13.8 mph - N/A   Clear
1:53 AM 52.0 °F 44.1 °F 74% 30.04 in 10.0 mi NW 12.7 mph - N/A   Clear
2:53 AM 50.0 °F 44.1 °F 80% 30.04 in 10.0 mi NW 6.9 mph - N/A   Clear
3:53 AM 48.9 °F 44.1 °F 83% 30.02 in 10.0 mi NW 8.1 mph - N/A   Clear
4:53 AM 48.0 °F 43.0 °F 83% 30.02 in 10.0 mi Calm Calm - N/A   Clear
5:53 AM 46.0 °F 42.1 °F 86% 30.03 in 10.0 mi Calm Calm - N/A   Clear
6:53 AM 45.0 °F 41.0 °F 86% 30.04 in 10.0 mi Calm Calm - N/A   Clear
7:53 AM 46.0 °F 42.1 °F 86% 30.05 in 10.0 mi Calm Calm - N/A   Clear
8:53 AM 48.9 °F 43.0 °F 80% 30.05 in 10.0 mi Calm Calm - N/A   Clear
9:53 AM 53.1 °F 45.0 °F 74% 30.06 in 10.0 mi Calm Calm - N/A   Clear
10:53 AM 59.0 °F 45.0 °F 60% 30.04 in 10.0 mi Calm Calm - N/A   Clear
11:53 AM 64.0 °F 45.0 °F 50% 30.03 in 10.0 mi WNW 4.6 mph - N/A   Clear
12:53 PM 68.0 °F 46.0 °F 45% 30.01 in 10.0 mi NW 5.8 mph - N/A   Clear
1:53 PM 73.0 °F 45.0 °F 37% 29.98 in 10.0 mi Variable 3.5 mph - N/A   Clear
2:53 PM 75.0 °F 42.1 °F 31% 29.96 in 10.0 mi East 3.5 mph - N/A   Clear
3:53 PM 77.0 °F 44.1 °F 31% 29.94 in 10.0 mi Variable 6.9 mph - N/A   Clear
4:53 PM 75.9 °F 45.0 °F 33% 29.94 in 10.0 mi NW 6.9 mph - N/A   Clear
5:53 PM 75.9 °F 39.0 °F 26% 29.93 in 10.0 mi Calm Calm - N/A   Clear
6:53 PM 73.0 °F 45.0 °F 37% 29.94 in 10.0 mi North 4.6 mph - N/A   Clear
7:53 PM 66.9 °F 42.1 °F 40% 29.96 in 10.0 mi WSW 4.6 mph - N/A   Clear
8:53 PM 63.0 °F 42.1 °F 46% 29.99 in 10.0 mi WNW 12.7 mph - N/A   Clear
9:53 PM 57.9 °F 43.0 °F 58% 30.01 in 10.0 mi NW 11.5 mph - N/A   Clear
10:53 PM 57.0 °F 44.1 °F 62% 30.02 in 10.0 mi NW 12.7 mph - N/A   Clear
11:53 PM 53.1 °F 43.0 °F 69% 30.03 in 10.0 mi NW 5.8 mph - N/A   Clear